"2014-02-10",00:01,3.877,3.297,3.915,3.244,3.345,3.861,87.2,-2.997,-1.189,328.3,333.1,-6.6,-0.499,0.,331.5,0,7999.,0.000,5.053341,99.62541,7.179,8.01,5.671,7.82,210.662,5.206,7.69,212.742,0.284,4.838,5.25,5.585,6.163,7.872,9.392,3.663,-999.,-999.,5.784,-4.511,-5.735,-4.595,-8.35,0.698,0.69,0.669,0.73,0.702,0.697,0.678,0.732,0.695,0.,100.
"2014-02-10",00:02,3.929,3.301,3.92,3.251,3.358,3.864,87.2,-3.008,-1.213,329.3,333.,-5.5,-0.499,0.,332.1,0,7999.,0.000,5.106669,99.62247,6.925,8.08,5.795,7.27,205.667,4.937,7.16,205.865,0.284,4.835,5.257,5.582,6.163,7.872,9.389,3.667,-999.,-999.,5.78,-4.509,-5.732,-4.593,-8.344,0.698,0.686,0.671,0.73,0.701,0.699,0.679,0.732,0.694,0.,100.
"2014-02-10",00:03,3.933,3.314,3.928,3.26,3.387,3.881,87.3,-3.048,-1.195,330.2,333.2,-4.9,-0.499,0.,332.8,0,7999.,0.000,5.126667,99.62166,7.371,9.2,5.692,6.75,208.875,4.434,5.9,211.401,0.284,4.838,5.263,5.588,6.184,7.872,9.392,3.67,-999.,-999.,5.787,-4.502,-5.727,-4.593,-8.342,0.698,0.687,0.671,0.729,0.701,0.697,0.679,0.732,0.694,0.,100.
"2014-02-10",00:04,3.962,3.311,3.953,3.265,3.407,3.911,86.9,-3.037,-1.189,330.3,333.9,-5.4,-0.499,0.,332.,0,7999.,0.010,5.053341,99.61884,6.167,7.013,6.435,7.45,204.413,5.096,6.67,206.525,0.284,4.835,5.273,5.578,6.163,7.872,9.395,3.67,-999.,-999.,5.787,-4.499,-5.725,-4.583,-8.341,0.698,0.686,0.67,0.73,0.702,0.699,0.68,0.733,0.695,0.,100.
"2014-02-10",00:05,3.995,3.327,3.981,3.268,3.42,3.924,87.1,-3.025,-1.189,329.8,333.7,-5.7,-0.499,0.,332.1,0,7999.,0.010,5.086672,99.61684,6.15,7.638,5.599,6.71,205.121,4.802,5.52,206.754,0.284,4.832,5.273,5.585,6.17,7.872,9.395,3.673,-999.,-999.,5.787,-4.494,-5.718,-4.582,-8.336,0.697,0.686,0.67,0.729,0.702,0.699,0.679,0.732,0.695,0.,100.
"2014-02-10",00:06,3.962,3.33,3.985,3.283,3.42,3.921,87.2,-3.025,-1.195,328.5,333.6,-6.9,-0.499,0.,331.9,0,7999.,0.020,5.14,99.61473,5.983,6.95,6.271,7.32,207.869,4.722,6.02,207.534,0.284,4.835,5.263,5.598,6.163,7.872,9.392,3.667,-999.,-999.,5.787,-4.49,-5.715,-4.577,-8.332,0.697,0.691,0.669,0.732,0.701,0.698,0.679,0.732,0.694,0.,100.
"2014-02-10",00:07,3.936,3.327,3.986,3.287,3.42,3.926,86.6,-3.048,-1.183,325.6,333.5,-9.8,-0.416,0.,331.,0,7999.,0.020,5.220002,99.6125,5.762,6.638,5.231,6.28,206.545,4.336,5.36,207.741,0.284,4.838,5.26,5.598,6.163,7.872,9.392,3.666,-999.,-999.,5.784,-4.489,-5.715,-4.573,-8.332,0.699,0.686,0.669,0.732,0.701,0.697,0.679,0.733,0.695,0.,100.
"2014-02-10",00:08,3.936,3.314,3.962,3.278,3.42,3.918,86.8,-3.088,-1.183,322.6,333.2,-12.5,-0.249,0.,329.,0,7999.,0.010,5.193329,99.6065,4.996,5.888,5.195,5.81,206.935,4.075,5.42,200.732,0.284,4.832,5.276,5.582,6.167,7.872,9.399,3.666,-999.,-999.,5.787,-4.482,-5.713,-4.569,-8.332,0.698,0.685,0.671,0.729,0.701,0.696,0.679,0.733,0.694,0.,100.
"2014-02-10",00:09,3.946,3.311,3.983,3.256,3.417,3.927,86.9,-3.179,-1.177,321.1,333.2,-14.1,-0.249,0.,326.9,0,7999.,0.010,5.1,99.60522,4.754,5.95,4.623,5.7,200.335,3.553,4.18,197.757,0.284,4.832,5.267,5.602,6.167,7.869,9.389,3.663,-999.,-999.,5.787,-4.48,-5.712,-4.564,-8.325,0.697,0.687,0.67,0.73,0.701,0.697,0.679,0.732,0.695,0.,100.
"2014-02-10",00:10,3.942,3.311,3.979,3.263,3.371,3.915,87.1,-3.259,-1.147,320.2,333.1,-15.0,-0.291,0.,324.8,0,7999.,0.010,5.119997,99.60228,5.392,6.888,5.902,6.92,203.4,4.369,5.85,202.136,0.284,4.832,5.273,5.598,6.164,7.872,9.395,3.663,-999.,-999.,5.787,-4.478,-5.709,-4.561,-8.321,0.698,0.686,0.668,0.734,0.701,0.698,0.68,0.732,0.695,0.,100.
"2014-02-10",00:11,3.939,3.307,3.966,3.258,3.341,3.914,86.6,-3.27,-1.159,318.6,332.8,-16.3,-0.249,0.,323.9,0,7999.,0.010,5.119997,99.60416,5.337,5.95,4.934,6.84,201.734,3.504,5.42,202.42,0.284,4.838,5.273,5.585,6.167,7.872,9.392,3.67,-999.,-999.,5.787,-4.472,-5.705,-4.557,-8.319,0.698,0.686,0.669,0.731,0.702,0.697,0.679,0.735,0.694,0.,100.
"2014-02-10",00:12,3.89,3.291,3.927,3.242,3.335,3.886,86.7,-3.287,-1.147,317.8,332.9,-17.2,-0.499,0.,323.5,0,7999.,0.000,5.133343,99.60732,5.037,6.013,5.274,6.12,204.465,4.416,5.26,199.202,0.284,4.828,5.277,5.588,6.153,7.872,9.399,3.67,-999.,-999.,5.784,-4.469,-5.705,-4.552,-8.311,0.699,0.686,0.669,0.732,0.702,0.697,0.679,0.732,0.695,0.,100.
"2014-02-10",00:13,3.857,3.278,3.904,3.248,3.269,3.869,87.2,-3.31,-1.147,318.2,332.3,-16.3,-0.333,0.,323.7,0,7999.,0.000,5.133343,99.61285,5.162,5.888,5.138,6.28,203.531,3.456,4.82,201.866,0.284,4.825,5.27,5.585,6.163,7.872,9.392,3.67,-999.,-999.,5.787,-4.465,-5.701,-4.552,-8.304,0.696,0.693,0.669,0.729,0.702,0.697,0.679,0.733,0.695,0.,100.
"2014-02-10",00:14,3.857,3.301,3.892,3.244,3.263,3.86,87.2,-3.35,-1.141,321.2,332.5,-13.5,-0.249,0.,325.4,0,7999.,0.000,5.14,99.61625,5.254,5.763,5.22,5.78,207.335,4.08,5.29,206.402,0.284,4.838,5.27,5.592,6.174,7.872,9.389,3.67,-999.,-999.,5.79,-4.461,-5.698,-4.547,-8.296,0.699,0.686,0.67,0.729,0.702,0.697,0.678,0.733,0.693,0.,100.
"2014-02-10",00:15,3.861,3.297,3.896,3.248,3.26,3.863,87.5,-3.344,-1.123,323.2,332.5,-11.5,-0.374,0.,327.,0,7999.,0.000,5.126667,99.62107,5.567,6.075,5.013,5.38,205.134,4.063,4.73,205.073,0.284,4.832,5.263,5.582,6.167,7.872,9.399,3.673,-999.,-999.,5.78,-4.457,-5.696,-4.542,-8.287,0.698,0.687,0.669,0.735,0.701,0.697,0.678,0.732,0.694,0.,100.
"2014-02-10",00:16,3.857,3.304,3.884,3.263,3.263,3.861,87.5,-3.316,-1.117,322.1,332.6,-12.7,-0.499,0.,326.,0,7999.,0.000,5.106669,99.61826,5.908,6.325,5.196,6.57,199.467,4.384,5.71,200.131,0.284,4.835,5.244,5.595,6.16,7.872,9.392,3.673,-999.,-999.,5.787,-4.452,-5.692,-4.542,-8.278,0.699,0.686,0.67,0.73,0.702,0.697,0.679,0.733,0.695,0.,100.
"2014-02-10",00:17,3.857,3.311,3.893,3.262,3.26,3.851,87.7,-3.282,-1.117,323.2,332.9,-11.9,-0.499,0.,327.,0,7999.,0.010,5.113328,99.62083,5.646,6.7,5.007,6.4,197.135,4.253,5.5,192.274,0.284,4.832,5.269,5.588,6.17,7.872,9.385,3.673,-999.,-999.,5.777,-4.448,-5.688,-4.536,-8.268,0.699,0.685,0.669,0.73,0.702,0.699,0.679,0.732,0.694,0.,100.
"2014-02-10",00:18,3.897,3.33,3.897,3.281,3.263,3.868,87.8,-3.247,-1.093,322.5,332.8,-12.5,-0.499,0.,326.6,0,7999.,0.000,5.133343,99.61778,4.925,5.638,5.023,6.03,192.531,4.005,4.89,188.406,0.284,4.819,5.27,5.608,6.167,7.872,9.385,3.673,-999.,-999.,5.784,-4.443,-5.686,-4.531,-8.259,0.699,0.686,0.671,0.729,0.701,0.7,0.678,0.732,0.695,0.,100.
"2014-02-10",00:19,3.897,3.35,3.928,3.309,3.263,3.878,88.,-3.253,-1.075,318.5,332.6,-16.3,-0.499,0.,323.8,0,7999.,0.000,5.106669,99.61601,5.308,6.388,4.82,5.48,199.74,3.992,5.25,196.804,0.284,4.825,5.267,5.585,6.177,7.872,9.385,3.67,-999.,-999.,5.787,-4.439,-5.683,-4.531,-8.251,0.698,0.686,0.672,0.729,0.702,0.7,0.678,0.733,0.694,0.,100.
"2014-02-10",00:20,3.87,3.34,3.921,3.305,3.26,3.896,88.2,-3.304,-1.087,317.3,332.5,-17.4,-0.333,0.,322.9,0,7999.,0.000,5.093342,99.61966,5.308,6.263,4.328,5.03,200.8,3.401,3.97,201.594,0.284,4.829,5.244,5.602,6.174,7.872,9.382,3.666,-999.,-999.,5.78,-4.434,-5.677,-4.527,-8.244,0.698,0.688,0.669,0.73,0.702,0.697,0.679,0.732,0.695,0.,100.
"2014-02-10",00:21,3.841,3.311,3.897,3.282,3.23,3.877,88.3,-3.407,-1.111,317.2,332.4,-17.5,-0.249,0.,322.8,0,7999.,0.000,5.073339,99.61755,5.225,6.513,4.12,4.77,196.332,3.199,4.02,195.863,0.284,4.822,5.26,5.585,6.173,7.872,9.385,3.663,-999.,-999.,5.787,-4.429,-5.676,-4.522,-8.238,0.698,0.686,0.671,0.73,0.702,0.697,0.677,0.738,0.694,0.,100.
"2014-02-10",00:22,3.779,3.294,3.872,3.262,3.184,3.854,88.4,-3.47,-1.111,318.4,332.3,-16.3,-0.249,0.,323.5,0,7999.,0.000,5.1,99.61272,4.771,5.888,4.225,5.64,187.927,3.094,4.3,184.932,0.284,4.832,5.263,5.579,6.174,7.872,9.389,3.673,-999.,-999.,5.777,-4.426,-5.674,-4.521,-8.234,0.698,0.69,0.67,0.729,0.702,0.696,0.679,0.732,0.694,0.,100.
"2014-02-10",00:23,3.733,3.278,3.832,3.242,3.184,3.799,88.4,-3.51,-1.117,318.4,332.3,-16.3,-0.125,0.,323.6,0,7999.,0.000,5.080003,99.61097,4.217,4.7,4.135,4.79,182.466,2.861,3.42,183.063,0.284,4.825,5.254,5.608,6.167,7.872,9.385,3.663,-999.,-999.,5.78,-4.42,-5.667,-4.518,-8.232,0.698,0.687,0.67,0.73,0.702,0.697,0.679,0.732,0.694,0.,100.
"2014-02-10",00:24,3.7,3.252,3.786,3.232,3.165,3.758,88.4,-3.555,-1.111,318.7,332.3,-16.0,0.,0.,323.5,0,7999.,0.000,5.093342,99.60439,4.371,5.45,4.417,4.94,182.667,2.937,4.06,181.201,0.284,4.822,5.266,5.599,6.167,7.872,9.389,3.673,-999.,-999.,5.777,-4.418,-5.666,-4.515,-8.229,0.698,0.689,0.671,0.73,0.701,0.697,0.678,0.736,0.694,0.,100.
"2014-02-10",00:25,3.703,3.232,3.756,3.207,3.122,3.73,88.4,-3.572,-1.105,318.3,332.2,-16.4,0.,0.,323.3,0,7999.,0.000,5.046672,99.60392,5.187,5.7,4.723,5.2,183.267,3.151,3.95,180.528,0.284,4.825,5.26,5.608,6.167,7.872,9.389,3.67,-999.,-999.,5.784,-4.41,-5.662,-4.512,-8.233,0.698,0.687,0.669,0.73,0.701,0.696,0.679,0.735,0.694,0.,100.
"2014-02-10",00:26,3.703,3.235,3.757,3.199,3.106,3.734,88.3,-3.578,-1.081,317.7,332.6,-17.4,0.,0.,322.6,0,7999.,0.000,5.093342,99.60216,5.204,5.888,4.473,4.96,183.997,3.463,3.99,179.654,0.284,4.825,5.26,5.595,6.17,7.875,9.379,3.673,-999.,-999.,5.78,-4.409,-5.656,-4.508,-8.233,0.697,0.686,0.67,0.732,0.701,0.698,0.679,0.732,0.694,0.,100.
"2014-02-10",00:27,3.684,3.216,3.724,3.174,3.106,3.711,88.4,-3.584,-1.069,316.9,332.3,-17.9,0.,0.,322.,0,7999.,0.000,5.066669,99.60133,5.4,6.325,5.119,6.06,179.459,3.885,4.85,178.201,0.284,4.835,5.263,5.602,6.18,7.872,9.382,3.67,-999.,-999.,5.787,-4.402,-5.656,-4.503,-8.238,0.698,0.689,0.668,0.732,0.701,0.697,0.679,0.732,0.695,0.,100.
"2014-02-10",00:28,3.621,3.153,3.7,3.16,3.106,3.678,88.4,-3.572,-1.045,316.4,332.2,-18.3,0.,0.,321.7,0,7999.,0.000,5.013341,99.6004,4.746,5.138,4.424,4.91,178.934,3.037,3.7,177.797,0.284,4.835,5.266,5.598,6.174,7.872,9.385,3.673,-999.,-999.,5.777,-4.399,-5.656,-4.501,-8.24,0.699,0.685,0.669,0.729,0.701,0.697,0.678,0.731,0.695,0.,100.
"2014-02-10",00:29,3.598,3.15,3.671,3.123,3.073,3.647,88.8,-3.584,-1.04,316.7,332.2,-18.0,-0.042,0.,321.5,0,7999.,0.000,5.013341,99.60087,4.975,5.513,4.835,5.48,178.599,3.362,4.75,177.934,0.284,4.825,5.256,5.589,6.177,7.872,9.382,3.673,-999.,-999.,5.774,-4.395,-5.652,-4.5,-8.247,0.698,0.687,0.671,0.73,0.701,0.697,0.681,0.732,0.695,0.,100.
"2014-02-10",00:30,3.585,3.15,3.645,3.103,3.034,3.628,88.8,-3.566,-1.028,316.7,332.2,-18.0,-0.208,0.,321.6,0,7999.,0.000,5.040002,99.60027,4.925,5.7,4.598,5.21,177.985,3.786,5.26,177.129,0.284,4.822,5.26,5.595,6.177,7.872,9.392,3.667,-999.,-999.,5.78,-4.388,-5.647,-4.495,-8.253,0.698,0.692,0.669,0.729,0.702,0.697,0.679,0.732,0.695,0.,100.
"2014-02-10",00:31,3.566,3.134,3.642,3.092,3.031,3.622,88.9,-3.549,-1.01,316.6,331.9,-17.8,-0.083,0.,321.7,0,7999.,0.000,5.019999,99.59887,5.312,5.95,4.511,5.07,177.666,3.692,4.9,176.665,0.284,4.819,5.256,5.592,6.174,7.875,9.376,3.673,-999.,-999.,5.777,-4.386,-5.647,-4.49,-8.264,0.698,0.686,0.671,0.728,0.701,0.7,0.678,0.732,0.695,0.,100.
"2014-02-10",00:32,3.579,3.127,3.638,3.086,3.027,3.61,88.9,-3.521,-1.016,317.,332.1,-17.6,-0.125,0.,321.9,0,7999.,0.000,5.060011,99.59559,4.404,5.013,5.077,5.87,179.535,3.689,4.16,176.395,0.284,4.829,5.24,5.592,6.177,7.872,9.379,3.666,-999.,-999.,5.777,-4.379,-5.638,-4.49,-8.273,0.698,0.688,0.669,0.729,0.702,0.695,0.681,0.732,0.695,0.,100.
"2014-02-10",00:33,3.569,3.124,3.615,3.089,3.027,3.605,88.9,-3.527,-0.992,316.4,331.9,-18.0,-0.042,0.,321.8,0,7999.,0.000,5.019999,99.59523,4.517,5.138,4.459,4.96,175.935,3.365,4.19,174.933,0.284,4.816,5.24,5.592,6.174,7.872,9.376,3.67,-999.,-999.,5.777,-4.375,-5.638,-4.487,-8.285,0.698,0.686,0.67,0.73,0.702,0.696,0.678,0.734,0.695,0.,80.
"2014-02-10",00:34,3.543,3.104,3.594,3.087,3.021,3.591,88.7,-3.549,-1.004,315.6,331.9,-18.8,-0.042,0.,321.,0,7999.,0.000,5.033332,99.59618,4.421,5.263,4.405,4.87,175.935,3.467,4.4,175.398,0.284,4.819,5.227,5.602,6.184,7.872,9.376,3.673,-999.,-999.,5.78,-4.368,-5.636,-4.481,-8.296,0.698,0.686,0.67,0.73,0.701,0.698,0.679,0.733,0.695,0.,100.
"2014-02-10",00:35,3.513,3.085,3.57,3.063,2.965,3.555,89.,-3.555,-1.016,314.3,331.9,-20.1,0.,0.,320.,0,7999.,0.000,5.046672,99.59441,4.471,4.825,4.151,4.67,175.134,3.024,4.1,173.066,0.284,4.835,5.253,5.602,6.18,7.865,9.379,3.673,-999.,-999.,5.79,-4.365,-5.628,-4.481,-8.313,0.697,0.692,0.67,0.729,0.702,0.695,0.681,0.731,0.695,0.,100.
"2014-02-10",00:36,3.467,3.058,3.535,3.028,2.955,3.517,89.5,-3.601,-1.04,313.4,331.5,-20.7,0.,0.,319.5,0,7999.,0.000,5.026669,99.59676,4.554,4.95,4.145,4.81,177.333,3.047,3.82,175.382,0.284,4.829,5.24,5.599,6.177,7.872,9.376,3.667,-999.,-999.,5.777,-4.36,-5.627,-4.48,-8.329,0.698,0.688,0.67,0.73,0.701,0.698,0.679,0.733,0.694,0.,100.
"2014-02-10",00:37,3.458,3.039,3.496,3.004,2.942,3.487,89.4,-3.623,-1.016,312.6,331.4,-21.4,0.,0.,318.6,0,7999.,0.000,5.019999,99.59688,4.308,4.763,3.965,4.32,177.864,3.238,4.48,173.2,0.284,4.832,5.234,5.592,6.177,7.872,9.372,3.673,-999.,-999.,5.777,-4.357,-5.625,-4.474,-8.348,0.698,0.686,0.67,0.73,0.702,0.697,0.679,0.732,0.695,0.,100.
"2014-02-10",00:38,3.435,2.999,3.485,2.988,2.877,3.474,89.4,-3.646,-1.028,312.,331.3,-21.9,0.,0.,318.5,0,7999.,0.000,5.006671,99.59676,4.437,5.388,3.826,4.23,173.399,2.89,3.61,174.,0.284,4.826,5.254,5.586,6.177,7.869,9.362,3.67,-999.,-999.,5.771,-4.351,-5.618,-4.471,-8.365,0.699,0.686,0.67,0.731,0.702,0.698,0.679,0.732,0.695,0.,40.
"2014-02-10",00:39,3.441,3.013,3.46,2.962,2.864,3.45,89.5,-3.692,-1.034,312.,331.1,-21.8,0.,0.,318.4,0,7999.,0.000,5.026669,99.59441,4.571,5.013,3.825,4.79,173.799,2.88,3.33,169.266,0.284,4.816,5.244,5.602,6.184,7.865,9.362,3.67,-999.,-999.,5.774,-4.347,-5.617,-4.47,-8.387,0.698,0.686,0.67,0.73,0.701,0.697,0.679,0.732,0.695,0.,20.
"2014-02-10",00:40,3.445,2.996,3.446,2.961,2.851,3.425,89.5,-3.743,-1.028,311.8,330.6,-21.5,0.,0.,318.3,0,7999.,0.000,5.040002,99.59406,4.504,4.825,4.281,5.,170.867,3.141,3.72,174.937,0.284,4.822,5.231,5.595,6.184,7.872,9.363,3.673,-999.,-999.,5.791,-4.344,-5.616,-4.469,-8.408,0.698,0.686,0.669,0.733,0.701,0.698,0.679,0.732,0.695,0.,33.33
"2014-02-10",00:41,3.389,2.986,3.422,2.945,2.808,3.42,89.3,-3.766,-1.051,311.7,330.6,-21.6,0.,0.,317.7,0,7999.,0.000,5.019999,99.59805,4.6,4.95,4.101,4.63,173.801,3.083,3.63,173.2,0.284,4.826,5.237,5.595,6.184,7.872,9.366,3.67,-999.,-999.,5.794,-4.339,-5.611,-4.462,-8.433,0.698,0.685,0.672,0.73,0.701,0.698,0.68,0.732,0.695,0.,66.67
"2014-02-10",00:42,3.386,2.98,3.413,2.934,2.792,3.39,89.4,-3.777,-1.039,310.8,330.6,-22.5,0.,0.,317.4,0,7999.,0.000,5.033332,99.60017,4.533,5.138,4.227,5.35,170.468,3.094,3.75,170.202,0.284,4.816,5.244,5.599,6.187,7.865,9.359,3.66,-999.,-999.,5.784,-4.335,-5.607,-4.46,-8.458,0.699,0.685,0.67,0.731,0.702,0.698,0.679,0.733,0.695,0.,66.67
"2014-02-10",00:43,3.389,2.993,3.413,2.929,2.763,3.394,89.3,-3.828,-1.039,309.5,330.5,-23.8,0.,0.,316.3,0,7999.,0.000,5.019999,99.60005,4.437,5.138,4.217,4.95,171.136,3.204,3.97,173.269,0.284,4.823,5.227,5.595,6.187,7.865,9.366,3.667,-999.,-999.,5.807,-4.333,-5.605,-4.46,-8.483,0.697,0.692,0.669,0.73,0.702,0.7,0.678,0.733,0.695,0.,100.
"2014-02-10",00:44,3.386,2.99,3.396,2.933,2.72,3.402,89.6,-3.828,-1.039,307.2,330.6,-26.2,-0.249,0.,314.9,0,7999.,0.000,4.993338,99.60017,4.308,4.45,3.979,4.74,169.733,3.125,3.88,170.402,0.284,4.826,5.244,5.602,6.184,7.869,9.363,3.67,-999.,-999.,5.784,-4.328,-5.6,-4.458,-8.513,0.699,0.686,0.67,0.731,0.701,0.698,0.679,0.732,0.695,0.,60.
"2014-02-10",00:45,3.392,2.98,3.383,2.93,2.714,3.391,89.8,-3.829,-1.039,305.3,330.3,-27.8,-0.125,0.,313.7,0,7999.,0.000,5.000007,99.59664,4.392,4.763,4.134,4.97,168.8,3.143,3.83,175.131,0.284,4.816,5.24,5.605,6.184,7.869,9.359,3.667,-999.,-999.,5.777,-4.324,-5.594,-4.453,-8.542,0.698,0.688,0.669,0.735,0.701,0.698,0.679,0.735,0.694,0.,60.
"2014-02-10",00:46,3.392,2.98,3.378,2.915,2.668,3.382,89.5,-3.874,-1.045,303.1,330.1,-29.8,-0.291,0.,311.8,0,7999.,0.000,4.986668,99.59888,4.3,4.763,4.053,4.93,170.468,3.151,3.92,169.798,0.284,4.816,5.237,5.595,6.184,7.865,9.363,3.667,-999.,-999.,5.784,-4.319,-5.588,-4.449,-8.573,0.698,0.689,0.67,0.73,0.702,0.696,0.679,0.732,0.695,0.,73.33
"2014-02-10",00:47,3.359,2.931,3.353,2.893,2.635,3.365,89.9,-3.92,-1.051,301.1,329.8,-31.6,-0.249,0.,310.4,0,7999.,0.000,4.993338,99.59629,4.337,4.763,3.816,4.65,169.401,3.114,4.15,172.534,0.284,4.813,5.24,5.612,6.184,7.846,9.359,3.654,-999.,-999.,5.787,-4.315,-5.588,-4.449,-8.607,0.699,0.686,0.671,0.73,0.701,0.699,0.678,0.73,0.696,0.,100.
"2014-02-10",00:48,3.31,2.891,3.308,2.858,2.563,3.307,89.8,-3.999,-1.045,299.,329.2,-33.2,-0.249,0.,309.1,0,7999.,0.000,4.920012,99.59512,4.312,4.7,3.823,4.38,168.534,2.492,3.02,170.4,0.284,4.813,5.237,5.609,6.184,7.856,9.363,3.657,-999.,-999.,5.788,-4.311,-5.586,-4.448,-8.642,0.699,0.685,0.67,0.73,0.701,0.696,0.681,0.733,0.695,0.,100.
"2014-02-10",00:49,3.238,2.839,3.276,2.819,2.54,3.277,89.8,-4.096,-1.075,297.2,328.6,-34.4,-0.042,0.,307.7,0,7999.,0.000,4.92667,99.59383,3.933,4.388,4.104,4.93,164.8,2.585,3.08,166.597,0.284,4.813,5.227,5.606,6.184,7.862,9.353,3.65,-999.,-999.,5.788,-4.306,-5.582,-4.439,-8.678,0.698,0.686,0.67,0.731,0.702,0.697,0.68,0.731,0.695,0.,100.
"2014-02-10",00:50,3.186,2.793,3.23,2.794,2.465,3.221,89.6,-4.193,-1.075,295.7,328.2,-35.6,-0.042,0.,306.4,0,7999.,0.000,4.946673,99.59417,4.217,5.138,4.038,4.79,165.465,2.616,3.13,167.056,0.284,4.806,5.227,5.599,6.18,7.839,9.373,3.634,-999.,-999.,5.784,-4.302,-5.578,-4.439,-8.717,0.698,0.686,0.67,0.729,0.702,0.697,0.679,0.733,0.695,0.,53.33
"2014-02-10",00:51,3.166,2.77,3.199,2.751,2.403,3.182,89.5,-4.244,-1.075,293.7,328.3,-37.8,-0.208,0.,305.,0,7999.,0.000,4.893332,99.59312,4.546,5.013,4.243,5.1,167.592,2.889,3.55,164.606,0.284,4.813,5.224,5.599,6.187,7.842,9.37,3.627,-999.,-999.,5.788,-4.297,-5.577,-4.438,-8.756,0.7,0.686,0.67,0.729,0.703,0.697,0.679,0.735,0.694,0.,66.67
"2014-02-10",00:52,3.137,2.744,3.158,2.716,2.324,3.142,90.1,-4.307,-1.063,292.,328.2,-39.4,-0.208,0.,303.5,0,7999.,0.000,4.880011,99.59171,4.467,4.7,4.519,4.86,166.733,3.149,3.97,168.865,0.284,4.813,5.227,5.592,6.184,7.833,9.373,3.621,-999.,-999.,5.804,-4.293,-5.576,-4.432,-8.799,0.698,0.687,0.669,0.731,0.702,0.697,0.679,0.731,0.696,0.,40.
"2014-02-10",00:53,3.081,2.698,3.118,2.71,2.259,3.123,89.7,-4.307,-1.063,289.8,328.,-41.4,-0.166,0.,302.,0,7999.,0.000,4.860002,99.59112,4.683,5.325,4.385,5.06,166.865,3.314,4.18,167.269,0.284,4.82,5.227,5.586,6.184,7.843,9.357,3.608,-999.,-999.,5.798,-4.288,-5.578,-4.429,-8.843,0.698,0.686,0.67,0.733,0.701,0.701,0.679,0.732,0.695,0.,66.67
"2014-02-10",00:54,3.026,2.679,3.08,2.663,2.223,3.093,89.8,-4.347,-1.057,288.7,327.3,-41.9,-0.249,0.,300.9,0,7999.,0.000,4.833329,99.58865,4.629,5.013,4.505,5.43,165.266,3.09,3.56,163.398,0.284,4.81,5.228,5.596,6.184,7.823,9.373,3.611,-999.,-999.,5.801,-4.283,-5.57,-4.429,-8.889,0.699,0.687,0.669,0.73,0.702,0.696,0.683,0.732,0.695,0.,100.
"2014-02-10",00:55,3.009,2.643,3.067,2.653,2.151,3.057,89.8,-4.387,-1.045,287.6,327.2,-42.9,-0.249,0.,300.,0,7999.,0.000,4.833329,99.58479,4.558,4.95,4.541,4.87,165.6,2.988,3.98,165.46,0.284,4.813,5.228,5.583,6.171,7.826,9.363,3.618,-999.,-999.,5.801,-4.282,-5.567,-4.426,-8.94,0.699,0.686,0.669,0.731,0.701,0.698,0.679,0.732,0.695,0.,93.3
"2014-02-10",00:56,2.931,2.587,2.996,2.604,2.086,3.007,89.8,-4.444,-1.039,286.8,326.9,-43.5,-0.291,0.,299.3,0,7999.,0.000,4.806667,99.58349,4.637,4.888,4.669,5.3,163.533,3.115,3.68,162.333,0.284,4.82,5.225,5.583,6.174,7.817,9.367,3.615,-999.,-999.,5.801,-4.276,-5.563,-4.419,-8.991,0.698,0.685,0.67,0.734,0.701,0.697,0.679,0.732,0.695,0.,100.
"2014-02-10",00:57,2.888,2.525,2.953,2.546,2.034,2.956,89.8,-4.45,-1.04,286.3,326.6,-43.7,-0.249,0.,298.9,0,7999.,0.000,4.780001,99.58384,4.775,5.2,4.765,5.34,163.867,3.325,3.9,164.003,0.284,4.816,5.224,5.566,6.164,7.836,9.37,3.611,-999.,-999.,5.811,-4.271,-5.559,-4.419,-9.045,0.698,0.688,0.669,0.73,0.701,0.7,0.678,0.733,0.694,0.,100.
"2014-02-10",00:58,2.855,2.489,2.911,2.512,1.952,2.909,89.9,-4.444,-1.04,286.2,326.3,-43.5,-0.499,0.,298.5,0,7999.,0.000,4.813332,99.58302,5.175,5.575,4.835,5.34,162.666,3.551,4.92,161.932,0.284,4.816,5.221,5.576,6.164,7.813,9.367,3.621,-999.,-999.,5.808,-4.268,-5.558,-4.419,-9.105,0.699,0.685,0.669,0.73,0.701,0.698,0.678,0.733,0.695,0.,60.
"2014-02-10",00:59,2.803,2.456,2.871,2.493,1.936,2.876,90.2,-4.45,-1.028,285.9,326.3,-43.8,-0.499,0.,298.2,0,7999.,0.000,4.793328,99.58302,5.221,5.575,4.916,5.34,161.134,3.39,4.43,161.069,0.284,4.816,5.231,5.573,6.171,7.827,9.377,3.621,-999.,-999.,5.805,-4.265,-5.555,-4.415,-9.167,0.698,0.688,0.67,0.731,0.701,0.698,0.679,0.731,0.697,0.,86.7
"2014-02-10",01:00,2.773,2.436,2.832,2.459,1.906,2.838,90.2,-4.432,-1.016,285.3,325.9,-44.0,-0.499,0.,298.,0,7999.,0.000,4.799998,99.58266,5.221,5.888,4.677,5.34,162.466,3.412,4.56,160.201,0.284,4.816,5.224,5.573,6.157,7.827,9.38,3.638,-999.,-999.,5.805,-4.265,-5.548,-4.41,-9.237,0.698,0.686,0.67,0.728,0.703,0.697,0.679,0.731,0.696,0.,80.
"2014-02-10",01:01,2.777,2.446,2.802,2.432,1.877,2.81,90.6,-4.432,-1.022,285.2,326.2,-44.4,-0.499,0.,297.7,0,7999.,0.000,4.799998,99.57973,4.825,5.45,4.514,5.19,164.,3.26,3.93,161.468,0.284,4.816,5.218,5.573,6.161,7.817,9.384,3.631,-999.,-999.,5.805,-4.268,-5.543,-4.409,-9.308,0.698,0.689,0.67,0.731,0.701,0.697,0.678,0.735,0.694,0.,6.667
"2014-02-10",01:02,2.754,2.407,2.792,2.422,1.864,2.797,90.3,-4.438,-1.034,284.5,325.3,-44.2,-0.499,0.,297.4,0,7999.,0.000,4.820001,99.58009,4.767,5.075,4.125,4.4,163.6,2.742,3.48,162.267,0.284,4.816,5.228,5.576,6.161,7.817,9.384,3.634,-999.,-999.,5.808,-4.272,-5.539,-4.409,-9.384,0.698,0.69,0.669,0.731,0.701,0.697,0.68,0.732,0.695,0.,6.667
"2014-02-10",01:03,2.675,2.368,2.735,2.383,1.812,2.755,90.7,-4.461,-1.045,284.5,324.8,-43.7,-0.499,0.,297.4,0,7999.,0.000,4.766673,99.58044,4.333,4.638,4.153,4.63,163.067,2.691,3.79,160.271,0.284,4.816,5.224,5.579,6.154,7.82,9.391,3.634,-999.,-999.,5.798,-4.265,-5.539,-4.408,-9.465,0.698,0.686,0.669,0.731,0.701,0.698,0.679,0.732,0.695,0.,0.
"2014-02-10",01:04,2.593,2.309,2.682,2.339,1.776,2.702,90.8,-4.512,-1.057,284.2,324.6,-43.9,-0.499,0.,297.,0,7999.,0.000,4.740012,99.58443,4.304,4.888,4.003,4.47,166.2,2.834,3.69,163.002,0.284,4.813,5.224,5.57,6.158,7.814,9.384,3.648,-999.,-999.,5.801,-4.267,-5.535,-4.406,-9.552,0.698,0.686,0.67,0.733,0.701,0.697,0.679,0.734,0.694,0.,0.
"2014-02-10",01:05,2.547,2.263,2.644,2.295,1.74,2.665,90.8,-4.524,-1.057,283.6,324.2,-44.1,-0.499,0.,296.8,0,7999.,0.000,4.793328,99.58807,4.35,4.888,3.805,4.17,168.133,3.121,4.54,163.674,0.284,4.813,5.221,5.573,6.148,7.817,9.391,3.641,-999.,-999.,5.795,-4.263,-5.53,-4.404,-9.641,0.698,0.686,0.671,0.73,0.701,0.697,0.678,0.735,0.694,0.,66.67
"2014-02-10",01:06,2.525,2.227,2.606,2.245,1.691,2.63,90.9,-4.569,-1.081,283.1,323.7,-44.1,-0.499,0.,296.2,0,7999.,0.000,4.759997,99.58877,4.379,4.7,3.975,4.49,165.331,2.399,2.87,165.402,0.284,4.81,5.217,5.576,6.154,7.82,9.388,3.641,-999.,-999.,5.785,-4.257,-5.528,-4.402,-9.737,0.698,0.685,0.671,0.729,0.701,0.697,0.678,0.732,0.695,0.,26.67
"2014-02-10",01:07,2.475,2.178,2.536,2.203,1.658,2.575,91.2,-4.592,-1.069,282.8,323.4,-44.1,-0.249,0.,295.9,0,7999.,0.000,4.706669,99.58877,4.233,4.638,4.068,4.45,165.132,2.348,3.08,163.197,0.284,4.803,5.224,5.573,6.148,7.83,9.398,3.641,-999.,-999.,5.782,-4.255,-5.523,-4.4,-9.835,0.698,0.687,0.672,0.729,0.701,0.697,0.679,0.733,0.695,0.,86.7
"2014-02-10",01:08,2.482,2.211,2.518,2.179,1.593,2.54,91.2,-4.615,-1.057,282.6,322.8,-43.8,-0.249,0.,295.4,0,7999.,0.000,4.780001,99.59007,4.337,4.638,3.793,4.24,168.399,2.478,3.07,165.937,0.284,4.79,5.227,5.576,6.151,7.83,9.395,3.625,-999.,-999.,5.775,-4.239,-5.519,-4.398,-9.938,0.698,0.687,0.67,0.73,0.702,0.697,0.679,0.732,0.695,0.,100.
"2014-02-10",01:09,2.469,2.188,2.513,2.179,1.544,2.539,90.8,-4.649,-1.051,282.2,322.5,-43.9,-0.457,0.,295.,0,7999.,0.000,4.740012,99.59065,4.354,4.638,3.792,4.23,169.868,2.919,3.89,164.935,0.284,4.78,5.221,5.55,6.145,7.844,9.395,3.625,-999.,-999.,5.769,-4.232,-5.517,-4.398,-10.046,0.698,0.689,0.669,0.729,0.702,0.697,0.679,0.732,0.695,0.,73.33
"2014-02-10",01:10,2.397,2.116,2.468,2.138,1.478,2.509,90.9,-4.643,-1.04,282.,322.5,-44.1,-0.499,0.,294.9,0,7999.,0.000,4.726672,99.58842,4.408,4.825,3.889,4.64,168.533,2.555,3.26,167.664,0.284,4.777,5.224,5.567,6.148,7.854,9.395,3.609,-999.,-999.,5.769,-4.223,-5.517,-4.398,-10.157,0.698,0.685,0.671,0.729,0.702,0.697,0.679,0.733,0.695,0.,86.7